Location: Anjeux
(47.8815°N, 6.2076°E)
Time: 17:24:54
(UTC+00:00)

Cosmos 1666 Rocket - Pass Details

Date: 05 March 2021
Orbit: 605 x 632 km, 82.5° (Epoch: 14 April)

Event Time Altitude Azimuth Distance (km) Brightness Sun altitude
Rises 05:20:01 0° 344° (NNW) 2,881 6.8 -8.9°
Reaches altitude 10° 05:22:20 10° 337° (NNW) 1,975 5.9 -8.5°
Maximum altitude 05:26:24 40° 268° (W) 916 4.0 -7.8°
Drops below altitude 10° 05:30:28 10° 199° (SSW) 1,973 6.0 -7.1°
Sets 05:32:47 0° 192° (SSW) 2,878 6.9 -6.7°
